This demonstration page uses our WeatherBlox Daily Observations layout. Learn more.

Left ArrowRight Arrow

41.55636, -103.73856

Hourly Observations for March 22, 2021

Temp ( °F °C ) Dew Point ( °F °C ) Humidity (%) Winds ( mph kmh ) Pressure ( in mb ) Visibility ( mi km ) Precip ( " mm )
12:58 am 00:58 Mostly Cloudy 23 -4.9 19 -7.1 85 85 WNW 10 17 30.15 1021 10 16 0.00 0.00
1:58 am 01:58 Mostly Cloudy 20 -6.4 17 -8.6 85 85 W 12 19 30.16 1021 10 16 0.00 0.00
2:58 am 02:58 Clear 22 -5.5 18 -8 83 83 W 9 15 30.13 1020 10 16 0.00 0.00
3:58 am 03:58 Mostly Clear 24 -4.6 18 -7.8 79 79 W 6 9 30.11 1020 10 16 0.00 0.00
4:58 am 04:58 Mostly Cloudy 24 -4.7 18 -7.9 79 79 W 6 9 30.10 1019 10 16 0.00 0.00
5:58 am 05:58 Partly Cloudy 23 -5.1 17 -8.2 79 79 WNW 6 9 30.08 1019 10 16 0.00 0.00
6:58 am 06:58 Mostly Cloudy 24 -4.7 18 -7.8 79 79 W 6 9 30.08 1019 10 16 0.00 0.00
7:58 am 07:58 Sunny 26 -3.1 18 -7.9 70 70 W 5 7 30.08 1019 10 16 0.00 0.00
8:58 am 08:58 Mostly Cloudy 29 -1.4 21 -6.3 70 70 WSW 3 6 30.06 1018 10 16 0.00 0.00
9:58 am 09:58 Mostly Cloudy 31 -0.7 23 -5.1 72 72 SW 5 7 30.06 1018 10 16 0.00 0.00
10:58 am 10:58 Sunny 33 0.7 24 -4.6 68 68 SSW 5 7 30.05 1018 10 16 0.00 0.00
11:58 am 11:58 Sunny 34 1.1 24 -4.6 66 66 SSW 3 6 30.04 1017 10 16 0.00 0.00
12:58 pm 12:58 Sunny 35 1.5 26 -3.5 70 70 SW 5 7 30.00 1016 10 16 0.00 0.00
1:58 pm 13:58 Sunny 35 1.8 27 -3 71 71 SSE 7 11 29.98 1015 10 16 0.00 0.00
2:58 pm 14:58 Sunny 36 2.1 26 -3.1 69 69 SSE 7 11 29.95 1014 10 16 0.00 0.00
3:58 pm 15:58 Sunny 36 2.2 27 -2.6 71 71 SSE 6 9 29.93 1013 10 16 0.00 0.00
4:58 pm 16:58 Sunny 37 2.5 27 -2.6 69 69 Calm 29.92 1013 10 16 0.00 0.00
5:58 pm 17:58 Sunny 36 2.2 27 -2.6 71 71 SSE 3 6 29.92 1013 10 16 0.00 0.00
6:58 pm 18:58 Sunny 35 1.9 26 -3.3 69 69 Calm 29.91 1013 10 16 0.00 0.00
7:58 pm 19:58 Clear 32 0.2 25 -4.1 73 73 SSE 7 11 29.94 1014 10 16 0.00 0.00
8:58 pm 20:58 Clear 32 -0.2 23 -5.2 69 69 S 8 13 29.92 1013 10 16 0.00 0.00
9:58 pm 21:58 Clear 29 -1.6 21 -5.9 73 73 S 10 17 29.91 1013 10 16 0.00 0.00
10:58 pm 22:58 Clear 28 -2 20 -6.5 72 72 SSW 10 17 29.91 1013 10 16 0.00 0.00
11:58 pm 23:58 Clear 29 -1.7 20 -6.6 70 70 SW 14 22 29.89 1012 10 16 0.00 0.00

Powered by AerisWeather